Volver al catálogo

STARLINK-5871

ActivoComunicacionesVLEO
NORAD 55919·PAYLOAD·🇺🇸 United States

Lanzado Mar 17, 2023 desde Vandenberg Space Force Base

Loading…

Próximos Pases (próximas 24 horas)

TLE

ActualizadoSource: CelesTrak SupGP

Época: Sep 15, 2026, 01:38 UTC

1 55919C 23037F   26258.06854167 -.00010603  00000+0 -88858-3 0  2583
2 55919  70.0018 187.0149 0003127 270.2524  67.7194 14.98334528    14

Sigue STARLINK-5871 en tiempo real con AllMySat

Download on the App Store